N1HUI Branford CT US current weather conditions

sailwx.info

Wind from 017 at 0 knots

Air temperature -3.3° C
Dewpoint -5.3° C

Last reported at 2019-Dec-13 02:01 UTC.
Time now 2019-Dec-13 03:06 UTC

Location: N 41°16' W 072°49'.
View on Google Maps.

See reports from other nearby stations

  
Tides and Currents Weather Stations Pressure Air Temp Water Temp Dewpoint Dewpoint Depression Visibility Wind Speed Wind Dir Waves Ship Positions
date/time (UTC)wind fromknots sea level pressurealtimeterstation pressurevisibilityair tempwater tempwave heightnotes
2019-Dec-13 02:01 017 0 -3.3
2019-Dec-13 01:46 013 1 -2.8
2019-Dec-13 01:30 034 0 -2.8
2019-Dec-13 01:16 035 1 -2.8
2019-Dec-13 01:00 035 1 -2.8
2019-Dec-13 00:46 043 0 -2.8
2019-Dec-13 00:30 043 1 -2.2
2019-Dec-13 00:16 086 0 -2.2
2019-Dec-13 00:01 161 0 -1.7
2019-Dec-12 23:45 161 -1.7
2019-Dec-12 23:30 161 -1.7
2019-Dec-12 23:15 161 -1.1
2019-Dec-12 23:00 161 -1.1
2019-Dec-12 22:45 161 0 -0.6
2019-Dec-12 22:30 161 1 -0.6
2019-Dec-12 22:15 164 -0.6
2019-Dec-12 22:00 164 0 -0.6
2019-Dec-12 21:45 164 1 -0.6
2019-Dec-12 21:30 147 -0.0
2019-Dec-12 21:15 144 0 0.6
2019-Dec-12 21:00 140 1 0.6
2019-Dec-12 20:45 136 2 1.1
2019-Dec-12 20:30 146 2 1.1
2019-Dec-12 20:15 005 1.7
2019-Dec-12 20:00 011 1 1.1
2019-Dec-12 19:45 068 1 0.6
2019-Dec-12 19:32 010 1.1
2019-Dec-12 19:30 010 1.1
2019-Dec-12 19:19 018 1 0.6
2019-Dec-12 19:15 025 2.8
2019-Dec-12 19:02 076 2 -0.0
2019-Dec-12 19:00 025 2.2
2019-Dec-12 18:47 017 3 0.6
2019-Dec-12 18:31 312 3 -0.0
2019-Dec-12 18:18 347 4 -0.0
2019-Dec-12 18:02 019 4 -0.0
2019-Dec-12 17:47 339 4 -0.6
2019-Dec-12 17:45 015 3 gusting 6 2.2
2019-Dec-12 17:31 017 5 -0.6
2019-Dec-12 17:17 012 5 -0.6
2019-Dec-12 17:02 346 6 -1.1
2019-Dec-12 17:00 348 1 gusting 6 2.2
2019-Dec-12 16:47 005 5 -1.1
2019-Dec-12 16:32 355 6 -1.1
2019-Dec-12 16:30 029 2 gusting 5 2.2
2019-Dec-12 16:18 309 4 -1.1
2019-Dec-12 16:01 322 4 -1.7
2019-Dec-12 15:47 350 5 -1.7
2019-Dec-12 15:31 302 6 -1.7
2019-Dec-12 15:15 024 1 gusting 5 -0.0
2019-Dec-12 15:02 308 3 -2.2
2019-Dec-12 15:00 005 0 gusting 5 -0.6
2019-Dec-12 14:46 320 4 -2.2
2019-Dec-12 14:31 302 6 -2.8
2019-Dec-12 14:30 355 0 gusting 2 -3.3
2019-Dec-12 14:16 323 6 -2.8
2019-Dec-12 14:01 329 4 -3.3
2019-Dec-12 13:45 282 3 -3.3
2019-Dec-12 13:30 289 5 -3.9
2019-Dec-12 13:15 284 6 -3.9
2019-Dec-12 13:00 284 5 -3.9
2019-Dec-12 12:45 279 4 -4.4
2019-Dec-12 12:30 291 4 -4.4
2019-Dec-12 12:15 342 -7.2
2019-Dec-12 12:00 302 4 -4.4
2019-Dec-12 11:45 289 3 -4.4
2019-Dec-12 11:31 294 3 -4.4
2019-Dec-12 11:30 342 -6.7
2019-Dec-12 11:18 289 3 -3.9
2019-Dec-12 11:01 280 2 -3.9
2019-Dec-12 10:47 282 2 -3.9
2019-Dec-12 10:32 294 2 -3.9
2019-Dec-12 10:30 342 -6.1
2019-Dec-12 10:17 294 4 -3.9
2019-Dec-12 10:02 287 5 -3.3
2019-Dec-12 09:46 292 5 -3.3
2019-Dec-12 09:45 342 -5.6
2019-Dec-12 09:32 289 4 -3.3
2019-Dec-12 09:16 296 3 -3.3
2019-Dec-12 09:15 342 -5.0
2019-Dec-12 09:03 309 5 -2.8
2019-Dec-12 08:48 294 6 -2.8
2019-Dec-12 08:45 340 -4.4
2019-Dec-12 08:31 321 5 -2.8
2019-Dec-12 08:17 317 3 -2.2
2019-Dec-12 08:02 305 3 -2.2
2019-Dec-12 08:00 325 -3.9
2019-Dec-12 07:46 301 5 -2.2
2019-Dec-12 07:45 322 -3.9
2019-Dec-12 07:31 335 5 -1.7
2019-Dec-12 07:18 304 5 -1.7
2019-Dec-12 07:02 342 7 -1.7
2019-Dec-12 06:45 299 13 -1.1
2019-Dec-12 06:32 310 14 -1.1
2019-Dec-12 06:16 300 11 -0.6
2019-Dec-12 06:00 304 7 gusting 6 -0.6
2019-Dec-12 05:45 274 8 -0.6
2019-Dec-12 05:31 306 5 -1.1
2019-Dec-12 05:30 284 -2.8
2019-Dec-12 05:15 273 6 -0.6
2019-Dec-12 05:01 277 6 -0.6
2019-Dec-12 04:45 281 8 -0.6
2019-Dec-12 04:30 275 8 gusting 0 -0.6
2019-Dec-12 04:15 275 8 -0.6
2019-Dec-12 04:00 283 7 gusting 1 -0.6
2019-Dec-12 03:45 285 10 -0.0
2019-Dec-12 03:30 246 -1.7
2019-Dec-12 03:17 290 9 -0.0
2019-Dec-12 03:02 225 -1.1
2019-Dec-12 02:47 277 9 0.6
2019-Dec-12 02:45 224 -1.1
2019-Dec-12 02:32 267 10 0.6
2019-Dec-12 02:16 262 9 0.6
2019-Dec-12 02:15 232 -0.6
2019-Dec-12 02:02 263 7 1.1
2019-Dec-12 01:47 256 12 1.1
2019-Dec-12 01:33 252 10 1.7
2019-Dec-12 01:30 230 1 gusting 6 0.6
2019-Dec-12 01:16 261 11 1.7
2019-Dec-12 01:15 236 0.6
2019-Dec-12 01:02 264 13 1.7
2019-Dec-12 00:46 248 13 1.7
2019-Dec-12 00:45 233 1 gusting 9 0.6
2019-Dec-12 00:31 246 12 1.7
2019-Dec-12 00:16 267 12 2.2
2019-Dec-12 00:15 231 0 gusting 10 -0.6
2019-Dec-12 00:01 279 12 1.7
2019-Dec-12 00:00 281 0 gusting 5 -0.6
2019-Dec-11 23:47 281 7 1.7
2019-Dec-11 23:32 268 7 1.1
2019-Dec-11 23:30 234 -0.6
2019-Dec-11 23:16 269 7 1.1
2019-Dec-11 23:02 272 6 1.1
2019-Dec-11 22:46 269 6 0.6
2019-Dec-11 22:45 222 -1.1
2019-Dec-11 22:32 283 6 0.6
2019-Dec-11 22:30 221 -1.1
2019-Dec-11 22:16 281 6 1.1
2019-Dec-11 22:01 254 6 1.1
2019-Dec-11 22:00 221 -0.6
2019-Dec-11 21:47 258 5 0.6
2019-Dec-11 21:32 286 5 0.6
2019-Dec-11 21:17 262 5 1.1
2019-Dec-11 21:01 241 6 1.1
2019-Dec-11 20:46 252 6 1.1
2019-Dec-11 20:31 253 5 1.1
2019-Dec-11 20:30 225 1.7
2019-Dec-11 20:17 254 6 1.1
2019-Dec-11 20:02 250 5 1.1
2019-Dec-11 20:00 211 0 gusting 5 1.7
2019-Dec-11 19:48 258 6 1.1
2019-Dec-11 19:31 236 6 1.1
2019-Dec-11 19:16 247 6 1.1
2019-Dec-11 19:15 235 0 gusting 6 2.2
2019-Dec-11 19:01 248 5 0.6
2019-Dec-11 18:46 241 2 1.1
2019-Dec-11 18:31 267 4 0.6
2019-Dec-11 18:16 247 4 0.6
2019-Dec-11 18:15 294 1.1
2019-Dec-11 18:01 229 3 -0.0
2019-Dec-11 17:47 246 2 -0.0
2019-Dec-11 17:32 294 3 -0.0
2019-Dec-11 17:30 321 1.1
2019-Dec-11 17:15 265 2 -0.0
2019-Dec-11 17:01 293 2 -0.6
2019-Dec-11 17:00 322 0 gusting 3 1.1
2019-Dec-11 16:45 285 2 -0.6
2019-Dec-11 16:31 293 2 -1.1
2019-Dec-11 16:30 360 0.6
2019-Dec-11 16:15 288 2 gusting 1 -1.7
2019-Dec-11 16:01 326 0 -2.2
2019-Dec-11 15:45 028 -2.2
2019-Dec-11 15:30 028 0 -2.8
2019-Dec-11 15:15 360 0 -2.8
2019-Dec-11 15:01 360 0 -2.8
2019-Dec-11 15:00 360 0 gusting 2 -2.2
2019-Dec-11 14:46 319 2 -2.8
2019-Dec-11 14:31 347 4 -2.8
2019-Dec-11 14:30 022 -1.7
2019-Dec-11 14:16 315 5 -2.2
2019-Dec-11 14:00 328 4 -2.2
2019-Dec-11 13:45 347 3 -1.7
2019-Dec-11 13:30 330 0 -1.7
2019-Dec-11 13:15 342 -1.7
2019-Dec-11 13:00 336 1 gusting 0 -1.7
2019-Dec-11 12:45 342 -1.7
2019-Dec-11 12:30 342 -1.7
2019-Dec-11 12:15 343 3 -1.7
2019-Dec-11 12:00 342 -1.1
2019-Dec-11 11:49 355 4 -1.7
2019-Dec-11 11:45 349 0 gusting 4 -1.1
2019-Dec-11 11:32 345 5 -1.7
2019-Dec-11 11:16 355 6 -1.7
2019-Dec-11 11:15 345 3 gusting 8 -1.1
2019-Dec-11 11:01 332 6 -1.1
2019-Dec-11 10:47 014 6 -1.1
2019-Dec-11 10:33 355 7 -1.1
2019-Dec-11 10:18 355 6 -0.6
2019-Dec-11 10:15 307 2 gusting 7 -0.0
2019-Dec-11 10:01 343 6 -0.0
2019-Dec-11 10:00 355 1 gusting 6 -0.0
2019-Dec-11 09:47 342 5 -0.0
2019-Dec-11 09:31 348 5 -0.0
2019-Dec-11 09:17 304 6 -0.0
2019-Dec-11 09:02 347 5 0.6
2019-Dec-11 08:47 005 6 0.6
2019-Dec-11 08:32 343 6 0.6
2019-Dec-11 08:17 330 5 0.6
2019-Dec-11 08:15 355 2 gusting 6 1.1
2019-Dec-11 08:02 336 6 1.1
2019-Dec-11 07:47 314 2 1.1
2019-Dec-11 07:31 320 4 1.1
2019-Dec-11 07:16 328 4 1.7
2019-Dec-11 07:00 348 5 gusting 4 1.7
2019-Dec-11 06:46 014 4 2.2
2019-Dec-11 06:30 309 3 2.8
2019-Dec-11 06:15 327 3 2.8
2019-Dec-11 06:00 320 4 3.3
2019-Dec-11 05:45 355 7 3.3
2019-Dec-11 05:30 360 2 gusting 11 4.4
2019-Dec-11 05:15 342 2 gusting 8 5.6
2019-Dec-11 05:03 308 4 5.6
2019-Dec-11 04:47 309 3 6.1
2019-Dec-11 04:33 276 3 6.1
2019-Dec-11 04:16 273 4 6.7
2019-Dec-11 04:03 256 5 6.7
2019-Dec-11 03:47 261 4 6.7
2019-Dec-11 03:31 273 6 7.2
2019-Dec-11 03:30 225 6.7
2019-Dec-11 03:18 293 6 7.2
2019-Dec-11 03:01 266 9 7.8